Content
SEND FEEDBACK

Daily
Averages
Monthly
Summary
France

AVIGNON, FRANCE


Home > Europe > France
Elevation: 187 feet     Latitude: 44 00N     Longitude: 004 45E

WEATHER
 
SELECT A DAY
Number of Records: 167,144;   Date Range: 5/17/04 - 7/23/14
 
SHARE

PRINT THIS DATA

[ ← Previous Day ]
WEATHER ALMANAC - FEBRUARY 17, 2013
[ Next Day → ]
[ °C ]   °F
Weather ElementAverageHighLow
Temperature39.4 °F55.4 °F (2:30 pm)26.6 °F (4:00 am)
Dewpoint31.2 °F35.6 °F (1:00 pm)24.8 °F (6:00 am)
Humidity75.9 %100 % (3:30 am)41 % (3:30 pm)
Barometer30.03 in30.12 in (1:00 am)29.98 in (2:30 pm)
Wind Speed2.3 mph5.8 mph (11:00 am)
Weather ElementAverage
Visibility5.7 mi
Wind DirectionESE (110.9 °)

Weather ElementTotal
Precipitation---
Heating Degree Days24 (Base 65)
Averaged from 47 records on February 17, 2013
WEATHER CONDITIONS BREAKOUT
WIND DIRECTION BREAKOUT
WEATHER BY HOUR - FEBRUARY 17, 2013
[ °C ]   °F
Local TimeTemperatureDewpointHumidityBarometerVisibilityWind DirectionWind SpeedGust SpeedPrecipitationEventsConditions
12:30 AM30.2 °F26.6 °F86 %30.09 in6.2 miCalm
1:00 AM30.2 °F26.6 °F86 %30.12 in6.2 miNorth (350°)2.3 mph
1:30 AM30.2 °F28.4 °F93 %30.09 in6.2 miCalm
2:00 AM28.4 °F26.6 °F93 %30.09 in6.2 miCalm
2:30 AM28.4 °F26.6 °F93 %30.09 in6.2 miCalm
3:00 AM28.4 °F26.6 °F93 %30.09 in4.3 miSouth (190°)1.2 mph
3:30 AM28.4 °F28.4 °F100 %30.06 in4.3 miCalm
4:00 AM26.6 °F26.6 °F100 %30.06 in3.7 miVariable1.2 mph
4:30 AM26.6 °F26.6 °F100 %30.06 in5.6 miCalm
5:00 AM26.6 °F26.6 °F100 %30.06 in5.6 miCalm
5:30 AM26.6 °F26.6 °F100 %30.06 in3.7 miCalm
6:00 AM26.6 °F24.8 °F93 %30.06 in3.1 miSouth (170°)2.3 mphMist
6:30 AM26.6 °F26.6 °F100 %30.06 in3.1 miVariable3.5 mphMist
7:00 AM26.6 °F26.6 °F100 %30.06 in3.7 miSE (140°)2.3 mph
7:30 AM26.6 °F26.6 °F100 %30.06 in4.3 miSSE (150°)2.3 mph
8:00 AM26.6 °F26.6 °F100 %30.06 inCalmMist
8:30 AM30.2 °F28.4 °F93 %30.06 in3.7 miSSE (160°)2.3 mph
9:00 AM33.8 °F32.0 °F93 %30.06 in4.3 miCalm
9:30 AM35.6 °F32.0 °F87 %30.06 in6.2 miCalm
10:00 AM39.2 °F32.0 °F75 %30.06 in6.2 miNorth (10°)4.6 mph
10:30 AM41.0 °F33.8 °F76 %30.06 in6.2 miNNW (340°)3.5 mph
11:00 AM42.8 °F32.0 °F66 %30.06 in6.2 miNorth (10°)5.8 mph
11:30 AM44.6 °F33.8 °F66 %30.06 in6.2 miNNE (20°)4.6 mph
12:00 PM48.2 °F33.8 °F58 %30.04 in6.2 miNorth (10°)4.6 mph
12:30 PM50.0 °F33.8 °F54 %30.04 in6.2 miNorth (360°)4.6 mph
1:00 PM51.8 °F35.6 °F54 %30.04 in6.2 miNorth (10°)4.6 mph
1:30 PM53.6 °F33.8 °F47 %30.01 in6.2 miNorth (360°)4.6 mph
2:00 PM53.6 °F33.8 °F47 %30.01 in6.2 miVariable3.5 mph
2:30 PM55.4 °F33.8 °F44 %29.98 in6.2 miVariable3.5 mph
3:00 PM55.4 °F33.8 °F44 %29.98 in6.2 miVariable3.5 mph
3:30 PM55.4 °F32.0 °F41 %29.98 in6.2 miNNW (340°)3.5 mph
4:00 PM55.4 °F32.0 °F41 %29.98 in6.2 miNorth (360°)3.5 mphScattered Clouds
4:30 PM53.6 °F32.0 °F44 %29.98 in6.2 miVariable2.3 mphMostly Cloudy
5:00 PM51.8 °F33.8 °F50 %29.98 in6.2 miNNW (330°)4.6 mphMostly Cloudy
5:30 PM50.0 °F33.8 °F54 %29.98 in6.2 miNorth (350°)3.5 mphPartly Cloudy
6:00 PM48.2 °F33.8 °F58 %29.98 in6.2 miNNE (20°)1.2 mphPartly Cloudy
6:30 PM46.4 °F33.8 °F62 %29.98 in6.2 miCalmMostly Cloudy
7:00 PM44.6 °F33.8 °F66 %29.98 in6.2 miCalmMostly Cloudy
7:30 PM41.0 °F33.8 °F76 %29.98 in6.2 miCalmScattered Clouds
8:00 PM39.2 °F33.8 °F81 %29.98 in6.2 miENE (60°)1.2 mphPartly Cloudy
8:30 PM39.2 °F33.8 °F81 %29.98 in6.2 miCalmScattered Clouds
9:00 PM39.2 °F33.8 °F81 %29.98 in6.2 miVariable2.3 mphMostly Cloudy
9:30 PM41.0 °F35.6 °F81 %29.98 in6.2 miENE (60°)3.5 mphOvercast
10:00 PM42.8 °F35.6 °F76 %29.98 in6.2 miNorth (360°)5.8 mphOvercast
10:30 PM42.8 °F35.6 °F76 %30.01 in6.2 miNNW (340°)3.5 mphOvercast
11:00 PM42.8 °F35.6 °F76 %30.01 in6.2 miNorth (350°)5.8 mphOvercast
11:30 PM41.0 °F35.6 °F81 %29.98 in6.2 miNorth (360°)4.6 mphMostly Cloudy
Hourly data recorded from LFMV, located miles away from Avignon, France







STORIES FROM OUR PARTNERS